Regional Weather Roundup
Issued by NWS

Home | Current Version | Previous Version | Text Only | Print | Product List | Glossary Off
Versions: 1 2 3 4 5 6 7 8 9 10 11 12 13 14 15 16 17 18 19 20 21 22 23 24 25 26 27 28 29 30 31 32 33 34 35 36 37 38 39 40 41 42 43 44 45 46 47 48 49 50

000
ASUS43 KMKX 280011
RWRWI

WISCONSIN REGIONAL WEATHER ROUNDUP
NATIONAL WEATHER SERVICE MILWAUKEE/SULLIVAN WI
700 PM CDT MON APR 27 2015

NOTE: "FAIR" INDICATES FEW OR NO CLOUDS BELOW 12,000 FEET WITH NO
SIGNIFICANT WEATHER AND/OR OBSTRUCTIONS TO VISIBILITY.

WIZ001-002-006>008-014>016-023>028-280100-
NORTHWEST WISCONSIN

CITY           SKY/WX    TMP DP  RH WIND       PRES   REMARKS
SUPERIOR ARPT  MOSUNNY   47  32  56 NE12      30.15R
6HR MIN TEMP:  47; 6HR MAX TEMP:  68;

ASHLAND        SUNNY     53  37  54 N7        30.16F
6HR MIN TEMP:  53; 6HR MAX TEMP:  64;

HAYWARD        SUNNY     65  25  22 N10       30.14S
6HR MIN TEMP:  61; 6HR MAX TEMP:  66;

SIREN          SUNNY     67  23  18 CALM      30.13S
6HR MIN TEMP:  63; 6HR MAX TEMP:  69;

CUMBERLAND     SUNNY     63  25  23 NE8       30.13S
RICE LAKE      SUNNY     65  27  24 N6        30.14S
6HR MIN TEMP:  61; 6HR MAX TEMP:  67;

CHETEK         SUNNY     64  33  32 N7        30.12S
6HR MIN TEMP:  61; 6HR MAX TEMP:  67;

LADYSMITH      SUNNY     64  30  28 N10       30.14S
6HR MIN TEMP:  61; 6HR MAX TEMP:  67;

EAU CLAIRE     SUNNY     68  28  22 NW7       30.10F
6HR MIN TEMP:  62; 6HR MAX TEMP:  69;

MENOMONIE      SUNNY     67  25  20 N9        30.11F
6HR MIN TEMP:  63; 6HR MAX TEMP:  69;

NEW RICHMOND   SUNNY     66  20  17 N9        30.13F
6HR MIN TEMP:  63; 6HR MAX TEMP:  69;

OSCEOLA        SUNNY     67  26  21 CALM      30.15F
6HR MIN TEMP:  62; 6HR MAX TEMP:  68;

$$

WIZ003>005-009-010-017-018-280100-
NORTH CENTRAL WISCONSIN

CITY           SKY/WX    TMP DP  RH WIND       PRES   REMARKS
MANITOWISH WTR CLEAR     55  27  33 N7        30.16R
6HR MIN TEMP:  55; 6HR MAX TEMP:  59;

ARBOR VITAE    CLEAR     57  26  30 N6        30.15R
6HR MIN TEMP:  57; 6HR MAX TEMP:  62;

WOODRUFF       CLEAR     57  26  30 N6        30.15R
6HR MIN TEMP:  57; 6HR MAX TEMP:  62;

RHINELANDER    CLEAR     58  26  29 N7        30.14R
6HR MIN TEMP:  58; 6HR MAX TEMP:  62;

EAGLE RIVER    CLEAR     56  23  28 N10       30.14R
6HR MIN TEMP:  56; 6HR MAX TEMP:  61;

LAND O LAKES   CLEAR     55  25  31 N7        30.15S
6HR MIN TEMP:  55; 6HR MAX TEMP:  59;

PHILLIPS       CLEAR     59  29  31 NE12      30.14S
6HR MIN TEMP:  58; 6HR MAX TEMP:  63;

TOMAHAWK       CLEAR     59  27  28 NW8       30.13S
6HR MIN TEMP:  59; 6HR MAX TEMP:  64;

MEDFORD        CLEAR     61  31  32 N8        30.12R
6HR MIN TEMP:  59; 6HR MAX TEMP:  65;

MERRILL        CLEAR     62  31  30 N12G17    30.11R
6HR MIN TEMP:  61; 6HR MAX TEMP:  66;

$$

WIZ029-030-035-036-043>047-280100-
CENTRAL WISCONSIN

CITY           SKY/WX    TMP DP  RH WIND       PRES   REMARKS
WAUSAU         CLEAR     64  26  23 N8        30.08R
6HR MIN TEMP:  60; 6HR MAX TEMP:  67;

MOSINEE        CLEAR     63  27  25 N13       30.11R
MARSHFIELD     CLEAR     65  29  25 N13       30.10R
6HR MIN TEMP:  62; 6HR MAX TEMP:  69;

STEVENS POINT  CLEAR     64  29  27 N8        30.09R
6HR MIN TEMP:  59; 6HR MAX TEMP:  65;

WAUPACA        CLEAR     68  26  21 NE8G16    30.07R
6HR MIN TEMP:  64; 6HR MAX TEMP:  70;

WAUTOMA        CLEAR     67  28  23 N7        30.07S
6HR MIN TEMP:  62; 6HR MAX TEMP:  69;

WISC RAPIDS    CLEAR     66  26  22 N12       30.09S
6HR MIN TEMP:  61; 6HR MAX TEMP:  69;

CAMP DOUGLAS   CLEAR     66  32  28 N9        30.08F
$$

WIZ011>013-019>022-031-037>040-048>050-280100-
NORTHEAST WISCONSIN

CITY           SKY/WX    TMP DP  RH WIND       PRES   REMARKS
ANTIGO         CLEAR     59  29  31 N15       30.11R
SHAWANO        CLEAR     60  36  39 E9        30.09S
6HR MIN TEMP:  60; 6HR MAX TEMP:  68;

OCONTO         CLEAR     51  36  55 E7        30.11S
6HR MIN TEMP:  50; 6HR MAX TEMP:  55;

STURGEON BAY   CLEAR     46  30  53 E6        30.14S
6HR MIN TEMP:  46; 6HR MAX TEMP:  57;

GREEN BAY      CLEAR     55  38  52 E13       30.11R
6HR MIN TEMP:  55; 6HR MAX TEMP:  62;

MANITOWOC      CLEAR     46  34  62 SE6       30.13R
6HR MIN TEMP:  46; 6HR MAX TEMP:  53;

APPLETON       CLEAR     63  30  29 NE7       30.09R
CLINTONVILLE   CLEAR     63  32  31 E7        30.08R
OSHKOSH        CLEAR     57  38  48 SE12      30.08S
6HR MIN TEMP:  56; 6HR MAX TEMP:  62;

$$

WIZ032>034-041-042-053>061-280100-
SOUTHWEST WISCONSIN

CITY           SKY/WX    TMP DP  RH WIND       PRES   REMARKS
LA CROSSE      SUNNY     68  31  25 N8        30.09F
6HR MIN TEMP:  62; 6HR MAX TEMP:  70;

SPARTA         CLEAR     66  28  24 NW8       30.10S
6HR MIN TEMP:  62; 6HR MAX TEMP:  68;

VIROQUA        CLEAR     63  31  30 N7        30.10S
6HR MIN TEMP:  59; 6HR MAX TEMP:  65;

BOSCOBEL       CLEAR     67  31  26 N7        30.09F
6HR MIN TEMP:  63; 6HR MAX TEMP:  69;

PRAIRIE DU CHI CLEAR     64  29  26 N8        30.10S
6HR MIN TEMP:  60; 6HR MAX TEMP:  66;

PLATTEVILLE    CLEAR     64  33  31 N9        30.09S
6HR MIN TEMP:  59; 6HR MAX TEMP:  66;

$$

WIZ056-057-062-063-064-067-068-280100-
SOUTH CENTRAL WISCONSIN

CITY           SKY/WX    TMP DP  RH WIND       PRES   REMARKS
REEDSBURG      CLEAR     64  33  31 N8        30.08S
6HR MIN TEMP:  60; 6HR MAX TEMP:  66;

BARABOO/DELLS  CLEAR     65  28  24 N8        30.08S
6HR MIN TEMP:  61; 6HR MAX TEMP:  66;

LONE ROCK      CLEAR     67  29  24 N9        30.08S
6HR MIN TEMP:  62; 6HR MAX TEMP:  68;

MINERAL POINT  CLEAR     64  27  24 N7        30.09S
MADISON        PTCLDY    64  31  28 N7        30.07S
6HR MIN TEMP:  61; 6HR MAX TEMP:  67;

MIDDLETON      CLEAR     65  29  25 N7        30.08S
6HR MIN TEMP:  62; 6HR MAX TEMP:  68;

WATERTOWN      CLEAR     56  38  50 E8        30.08S
6HR MIN TEMP:  56; 6HR MAX TEMP:  63;

MONROE         CLEAR     61  32  33 N10       30.07F
JANESVILLE     PTCLDY    63  28  27 E12       30.07F
$$

WIZ051-052-058>065-066-070>072-280100-
SOUTHEAST WISCONSIN

CITY           SKY/WX    TMP DP  RH WIND       PRES   REMARKS
MILWAUKEE      PTCLDY    46  32  58 NE7       30.13F
6HR MIN TEMP:  45; 6HR MAX TEMP:  51;

WAUKESHA       CLEAR     50  34  53 E9        30.11F
MILWAUKEE/TIMM CLEAR     48  30  49 NE9       30.12S
RACINE         PTCLDY    46  32  58 NE7       30.13F
6HR MIN TEMP:  46; 6HR MAX TEMP:  52;

BURLINGTON     PTCLDY    49  34  56 E6        30.10F
6HR MIN TEMP:  49; 6HR MAX TEMP:  59;

KENOSHA        PTCLDY    48  34  58 E8        30.11F
6HR MIN TEMP:  48; 6HR MAX TEMP:  56;

FOND DU LAC    CLEAR     57  38  48 SE13      30.08S
6HR MIN TEMP:  57; 6HR MAX TEMP:  63;

SHEBOYGAN      CLEAR     47  33  58 E9        30.12S
6HR MIN TEMP:  47; 6HR MAX TEMP:  52;

WEST BEND      CLEAR     48  32  53 E8        30.10F
JUNEAU         CLEAR     56  38  50 E10       30.09S
6HR MIN TEMP:  56; 6HR MAX TEMP:  62;

$$

LSZ147-162-280100-
LAKE SUPERIOR

STATION/POSITION TIME  TEMP    WIND        PRES    WAVE
                       AIR SEA DIR/SP/G            HT/PER
                 (UTC) (F)     (DEG/KT/KT) (MB)    (FT/S)
W MID LAKE BUOY  2350   37 35  360/  4/  4 1023.4F   0
DEVILS ISLAND    0000   51     140/  6/  7 1022.0R
PORT WING        2340   41      20/ 11/ 13 1020.7F
SAXON HARBOR     2300   51        CALM     1021.3F
$$

LMZ867-665-643>646-280100-
LAKE MICHIGAN

STATION/POSITION TIME  TEMP    WIND        PRES    WAVE
                       AIR SEA DIR/SP/G            HT/PER



USA.gov is the U.S. government's official web portal to all federal, state and local government web resources and services.